Regional Weather Roundup
Issued by NWS

Home | Current Version | Previous Version | Text Only | Print | Product List | Glossary On
Versions: 1 2 3 4 5 6 7 8 9 10 11 12 13 14 15 16 17 18 19 20 21 22 23 24 25 26 27 28 29 30 31 32 33 34 35 36 37 38 39 40 41 42 43 44 45 46 47 48 49 50
000
ASUS44 KEWX 081811
RWRTX
SOUTH TEXAS REGIONAL WEATHER ROUNDUP
NATIONAL WEATHER SERVICE AUSTIN/SAN ANTONIO TX
1200 PM CST THU DEC 08 2016

NOTE: "FAIR" INDICATED FEW OR NO CLOUDS BELOW 12,000 FEET WITH NO
SIGNIFICANT WEATHER AND/OR OBSTRUCTIONS TO VISIBILITY.

* - THESE STATIONS ARE NOT NWS OR FAA STATIONS...AND ARE NOT SUBJECT
    TO NWS AND FAA QUALITY CONTROL.

TXZ171-172-183>190-081900-
TEXAS HILL COUNTRY AND EDWARDS PLATEAU

CITY           SKY/WX    TMP DP  RH WIND       PRES   REMARKS
JUNCTION       CLOUDY    36  26  67 NE17G28   30.51F WCI  26
6HR MIN TEMP:  34; 6HR MAX TEMP:  38;

*LLANO         CLOUDY   N/A N/A N/A NE14G23   30.59F
BURNET         CLOUDY    38  24  57 N16G28    30.55F WCI  29
6HR MIN TEMP:  35; 6HR MAX TEMP:  38;

*HORSESHOE BAY CLOUDY    40  28  62 NE10G20   30.54F WCI  34
6HR MIN TEMP:  37; 6HR MAX TEMP:  41;

*KERRVILLE     CLOUDY    38  28  65 N17G25    30.49R WCI  29
6HR MIN TEMP:  36; 6HR MAX TEMP:  41;

*FREDERICKSBRG CLOUDY    38  26  61 NE21G30   30.46F WCI  27
6HR MIN TEMP:  35; 6HR MAX TEMP:  39;

*ROCKSPRINGS   CLOUDY    36  27  69 NE15G23   30.48S WCI  26
*BOERNE STAGE  CLOUDY    37  27  65 N18       30.47F WCI  27
*CASTROVILLE   CLOUDY    44  29  55 N15G21    30.49R WCI  37
HONDO          CLOUDY    45  29  53 NE18      30.49R WCI  37
6HR MIN TEMP:  45; 6HR MAX TEMP:  50;

*UVALDE        CLOUDY    43  31  63 N9        30.51R WCI  37
6HR MIN TEMP:  43; 6HR MAX TEMP:  49;

DEL RIO        CLOUDY    43  30  60 N10       30.54R WCI  37
6HR MIN TEMP:  42; 6HR MAX TEMP:  48;

LAUGHLIN AFB   CLOUDY    43  38  80 N9        30.53S WCI  38
6HR MIN TEMP:  42; 6HR MAX TEMP:  48;

CARRIZO SPRGS  CLOUDY    45  37  76 N13       30.49R WCI  38
*EAGLE PASS    CLOUDY    45  34  65 N13G21    30.52S WCI  38
$$

TXZ173-191>194-202-209-217>225-228-081900-
CENTRAL AND SOUTH CENTRAL TEXAS

CITY           SKY/WX    TMP DP  RH WIND       PRES   REMARKS
GEORGETOWN     MOSUNNY   39  25  56 N18G24    30.55F WCI  30
AUSTIN/BERGSTM CLOUDY    42  30  62 N31G38    30.49F WCI  31
6HR MIN TEMP:  41; 6HR MAX TEMP:  46; 6HR PCP: TRACE;

AUSTIN/MABRY   CLOUDY    40  29  64 N14G25    30.52F WCI  32
6HR MIN TEMP:  40; 6HR MAX TEMP:  44;

*AUSTIN/EXEC   CLOUDY    39  30  70 N24       30.52F WCI  28
*LAGO VISTA    CLOUDY    39  29  66 N15G29    30.51F WCI  30
6HR MIN TEMP:  37; 6HR MAX TEMP:  40;

SAN MARCOS     MOSUNNY   43  32  65 N23G37    30.48F WCI  33
NEW BRAUNFELS  PTSUNNY   45  30  55 NE24G33   30.46S WCI  36
6HR MIN TEMP:  42; 6HR MAX TEMP:  49;

RANDOLPH AFB   PTSUNNY   44  30  57 N20       30.46S WCI  36
6HR MIN TEMP:  41; 6HR MAX TEMP:  48;

PT SAN ANTONIO PTSUNNY   45  29  54 N14       30.44S WCI  38
6HR MIN TEMP:  44; 6HR MAX TEMP:  48; 6HR PCP: TRACE;

SAN ANTONIO    CLOUDY    44  28  53 N20G30    30.46S WCI  36
6HR MIN TEMP:  42; 6HR MAX TEMP:  48; 6HR PCP: TRACE;

STINSON FIELD  CLOUDY    47  30  51 N15G23    30.45S WCI  41
6HR MIN TEMP:  45; 6HR MAX TEMP:  50;

*PLEASANTON    CLOUDY    46  32  58 N13G21    30.46S WCI  40
6HR MIN TEMP:  45; 6HR MAX TEMP:  51;

*LA GRANGE     CLOUDY    44  37  75 N16G25    30.44F WCI  36
6HR MIN TEMP:  43; 6HR MAX TEMP:  48;

*GIDDINGS      CLOUDY    41  32  70 N14G25    30.52S WCI  34
6HR MIN TEMP:  40; 6HR MAX TEMP:  44;

*GONZALES      CLOUDY    46  34  62 N18G25    30.45F WCI  39
6HR MIN TEMP:  43; 6HR MAX TEMP:  49;

$$

TXZ163>164-176>182-195>201-210>213-226-227-235-081900-
SOUTHEAST TEXAS

CITY           SKY/WX    TMP DP  RH WIND       PRES   REMARKS
COLLEGE STN    CLOUDY    43  33  68 N17G24    30.50F WCI  35
6HR MIN TEMP:  42; 6HR MAX TEMP:  45;

*BRYAN         CLOUDY   N/A N/A N/A N15G21    30.53
*CALDWELL      NOT AVBL
*CROCKETT      CLOUDY    41  30  65 N13G20    30.53F WCI  34
*BRENHAM       CLOUDY    47  36  65 N14G24    30.47F WCI  41
6HR MIN TEMP:  44; 6HR MAX TEMP:  48;

HUNTSVILLE     CLOUDY    44  30  57 VRB6G18   30.48F WCI  41
6HR MIN TEMP:  42; 6HR MAX TEMP:  46;

CONROE         CLOUDY    46  35  65 N16G25    30.45F WCI  39
6HR MIN TEMP:  44; 6HR MAX TEMP:  48;

HOUSTON BUSH   CLOUDY    46  40  79 N18       30.43F WCI  39
6HR MIN TEMP:  46; 6HR MAX TEMP:  52; 6HR PCP: TRACE;

HOUSTON HOBBY  CLOUDY    48  41  76 N21       30.40F WCI  41
6HR MIN TEMP:  48; 6HR MAX TEMP:  55; 6HR PCP: TRACE;

*HOUSTON SW AP CLOUDY    47  42  81 N9G24     30.40F WCI  43
6HR MIN TEMP:  47; 6HR MAX TEMP:  53; 6HR PCP:  0.01;

PEARLAND       CLOUDY    50  42  74 NE17G29   30.41S WCI  44
6HR MIN TEMP:  49; 6HR MAX TEMP:  56;

HOUSTON HOOKS  CLOUDY    46  39  76 NE10G24   30.44F WCI  41
6HR MIN TEMP:  45; 6HR MAX TEMP:  51;

ELLINGTON FLD  CLOUDY    48  45  87 N18G25    30.40F WCI  42
SUGAR LAND     CLOUDY    47  41  80 NE24G35   30.39F WCI  39
6HR MIN TEMP:  47; 6HR MAX TEMP:  53;

*HOUSTON EXEC    N/A     46  39  76 NE17      30.44F WCI  39
*CLEVELAND MUN CLOUDY    47  38  72 N18       30.44F WCI  40
6HR MIN TEMP:  44; 6HR MAX TEMP:  50;

*WHARTON       CLOUDY    47  42  82 N21G29    30.37F WCI  40
6HR MIN TEMP:  47; 6HR MAX TEMP:  52;

*COLUMBUS      CLOUDY    46  37  71 N20G29    30.42F WCI  38
6HR MIN TEMP:  44; 6HR MAX TEMP:  50;

*EAGLE LAKE    CLOUDY    49  42  78 N20G30    30.42F WCI  42
6HR MIN TEMP:  46; 6HR MAX TEMP:  52;

$$

TXZ214>216-236>238-081900-
THE UPPER TEXAS COAST

CITY           SKY/WX    TMP DP  RH WIND       PRES   REMARKS
*ORANGE        CLOUDY    47  44  90 N8G18     30.41F WCI  43
                                      6HR PCP:  0.02;

PORT ARTHUR    CLOUDY    47  42  83 N20G29    30.39S WCI  40
6HR MIN TEMP:  47; 6HR MAX TEMP:  53; 6HR PCP:  0.01;

GALVESTON      CLOUDY    51  45  79 N28G36    30.37F
6HR MIN TEMP:  50; 6HR MAX TEMP:  57;

ANGLETON       CLOUDY    50  43  77 N24G35    30.37F WCI  43
6HR MIN TEMP:  50; 6HR MAX TEMP:  57;

*BAY CITY      CLOUDY    50  44  81 N16G23    30.37R WCI  44
PALACIOS       CLOUDY    48  43  82 N24G37    30.35F WCI  40
6HR MIN TEMP:  47; 6HR MAX TEMP:  53;

$$

TXZ229>234-239>247-081900-
TEXAS COASTAL BEND AND RIO GRANDE PLAINS

CITY           SKY/WX    TMP DP  RH WIND       PRES   REMARKS
VICTORIA       CLOUDY    47  39  74 N24G36    30.39F WCI  39
6HR MIN TEMP:  46; 6HR MAX TEMP:  54;

*BEEVILLE      DRIZZLE   46  39  77 N18G24    30.41R WCI  38
6HR MIN TEMP:  46; 6HR MAX TEMP:  54;

ROCKPORT         N/A    N/A N/A N/A MISG      30.35S
*PORT ARANSAS  CLOUDY    50  46  85 N28       30.33F WCI  43
6HR MIN TEMP:  50; 6HR MAX TEMP:  56;

*PORT LAVACA   CLOUDY    46  45  93 N24G31    30.37S WCI  38
*INGLESIDE     CLOUDY    51  45  80 N24G35    30.34F
CORPUS CHRISTI DRIZZLE   48  44  86 N31G39    30.34F WCI  39
6HR MIN TEMP:  48; 6HR MAX TEMP:  56; 6HR PCP:  0.01;

CORPUS NAS     CLOUDY    49  46  90 N35G43    30.32F WCI  40
6HR MIN TEMP:  49; 6HR MAX TEMP:  55; 6HR PCP: TRACE;

*ROBSTOWN      DRIZZLE   47  46  97 N23G31    30.35F WCI  39
6HR MIN TEMP:  47; 6HR MAX TEMP:  56; 6HR PCP:  0.01;

ALICE            N/A     45  43  93 MISG      30.37S
6HR MIN TEMP:  45; 6HR MAX TEMP:  54; 6HR PCP:  0.30;

KINGSVILLE NAS CLOUDY    48  47  96 N17G28    30.36R WCI  42
6HR MIN TEMP:  48; 6HR MAX TEMP:  56; 6HR PCP:  0.01;

COTULLA        CLOUDY    49  34  56 N17G23    30.47S WCI  43
6HR MIN TEMP:  48; 6HR MAX TEMP:  54; 6HR PCP: TRACE;

*FAITH RANCH   CLOUDY    46  41  81 N14G22    30.48S WCI  40
LAREDO         CLOUDY    48  42  80 N17G24    30.44S WCI  42
6HR MIN TEMP:  47; 6HR MAX TEMP:  52; 6HR PCP:  0.02;

$$

TXZ248>255-081900-
DEEP SOUTH TEXAS

CITY           SKY/WX    TMP DP  RH WIND       PRES   REMARKS
BROWNSVILLE    LGT RAIN  61  60  97 NW17G24   30.24S
6HR MIN TEMP:  61; 6HR MAX TEMP:  65; 6HR PCP:  0.90;

PORT ISABEL    RAIN      62  61  96 N21G33    30.24R FOG
6HR MIN TEMP:  62; 6HR MAX TEMP:  65; 6HR PCP:  0.08;

*SOUTH PADRE     N/A     66  64  94 N31G38    30.20S VSB 1/2
HARLINGEN      HVY RAIN  55  55 100 N23       30.29R FOG
6HR MIN C1F1C2F2C3F3C4F4C5F5C6F6C7M1C8M2C9!


USA.gov is the U.S. government's official web portal to all federal, state and local government web resources and services.